VINASAT-1

Last updated on Sun Sep 20 2026 00:02:56 GMT+0000 (Coordinated Universal Time)

1 32767U 08018A 26262.55327991 -.00000332 00000+0 00000+0 0 9998 2 32767 0.0135 244.8668 0001804 305.0041 139.7265 1.00273031 67531
UTC large
Height (km)
Speed (km/s)
/
Latitude / Longitude
Inclination (degrees)
Orbital Period (minutes)
Azimuth
Elevation
Range (km)
Doppler Factor

Next 0 passes for location: London (51.5072 / 0.1276)

No passes found over London.
VINASAT-1